www.pogodaiklimat.ru

Погода и климат >> Архив погоды >> Россия >> Хабаровский край >> Елабуга


ПОГОДА в Елабуге

  • Прогноз погоды в Елабуге
  • Монитор погоды в Елабуге

АРХИВ ПОГОДЫ в Елабуге

Время (UTC), дата Ветер
(напр.,м/с)
 
Видим.   Явления Облачность Т
(С)
Тd
(С)
f
(%)
Тe
(С)
Тes
(С)
Комфортность P
(гПа)
Po
(гПа)
Тmin
(С)
Tmax
(С)
R
(мм)
R24
(мм)
S
(см)
00 16.04 Ю 3
{10}
20 км 3/0
[Ci fib]
+12.3 -2.6 35 +11 +18 1004.7 997.2
03 16.04 Ю 5
{11}
20 км 1/0
[Ci fib]
+19.7 -1.5 24 +20 +27 1001.1 993.9
06 16.04 ЮЗ 6-13
{13}
20 км 8/0
[Ac trans Ci fib]
+21.8 -3.2 18 +21 +23 комфорт 998.4 991.3
09 16.04 Ю 4
{14}
20 км 10/0
[Ac trans Ci fib]
+19.4 -2.4 23 +19 +20 996.8 989.6 +22.0
12 16.04 Ю 4 20 км 10/3 1000 м
[Sc Ac trans Ci fib]
+14.9 -2.1 31 +14 +14 997.1 989.8
15 16.04 З 4
{11}
20 км 10/0
[Ac trans Cs]
+12.6 +0.2 43 +11 +11 997.8 990.4
18 16.04 З 6 20 км 10/4 1000 м
[Sc Ac trans Cs]
+9.8 -1.1 47 +7 +7 1000.5 993.1
21 16.04 ЮЗ 3
{10}
20 км 10/6 1000 м
[Sc Ci fib]
+7.1 -5.2 41 +5 +5 1003.5 996.0 +6.3
00 17.04 З 2 20 км 10/3 1000 м
[Sc Ac trans Ci fib]
+9.3 -5.6 34 +8 +11 1005.0 997.5
03 17.04 З 3 20 км 9/0
[Ac trans]
+12.2 -4.9 30 +11 +17 1004.4 997.0
06 17.04 С 1 20 км 10/0
[Ac trans Ci sp]
+13.9 -6.8 23 +15 +21 1001.9 994.5
09 17.04 СВ 2 20 км 10/3 1000 м
[Sc Ac trans Ci sp]
+12.7 -6.4 26 +12 +13 1000.6 993.2 +14.7
12 17.04 СВ 2 20 км 10/0
[Ac trans Ci fib]
+8.2 -5.3 38 +7 +7 999.5 992.0
15 17.04 СВ 3 20 км 10/0
[Ac trans Ci sp]
+4.8 -5.4 48 +2 +2 997.7 990.2
18 17.04 СВ 2 20 км 10/0
[Ac trans Ci sp]
+3.6 -4.9 54 +1 +1 995.8 988.2
21 17.04 СВ 2 20 км 10/0
[Ac trans Ci fib]
+2.0 -1.4 78 -1 -1 995.1 987.4 +1.1
00 18.04 В 1 20 км 10/0
[Ac trans Ci fib]
+9.3 -0.2 51 +9 +15 994.6 987.2
03 18.04 З 1 20 км 9/6 600 м
[Cb cap Ac trans]
+9.9 +0.9 53 +10 +14 995.3 987.9
06 18.04 З 5 20 км 10/9 700 м
[Cb cap]
+7.2 +2.1 70 +3 +4 997.9 990.4
09 18.04 ЮЗ 4 10 км слаб. ливневой дождь 10/10 720 м
[Cb cap]
+3.5 +1.9 89 -1 -1 1000.9 993.2 +11.1 1
12 18.04 Ю 3 20 км {ливн. осадки} 10/10 720 м
[Cb cap]
+1.4 -1.3 82 -3 -3 1002.8 995.1
15 18.04 Ю 4
{10}
20 км {ливн. осадки} 10/10 700 м
[Cb cap]
-0.1 -2.7 83 -6 -6 1002.4 994.7
18 18.04 Ю 4
{10}
2000 м слаб. ливневой снег 10/10 660 м
[Cb cap]
-0.9 -1.6 95 -7 -7 1001.4 993.6
21 18.04 Ю 4 2000 м слаб. град 10/10 700 м
[Cb cap]
-1.5 -2.4 94 -7 -7 1002.0 994.2 -1.5 2 1
00 19.04 Ю 4 2000 м слаб. ливневой снег 10/10 720 м
[Cb cap]
-0.7 -1.8 92 -6 -6 1003.5 995.8 -1.5
03 19.04 З 3 4000 м слаб. ливневой снег 10/10 720 м
[Cb cap]
+1.1 +0.2 94 -4 -4 1005.5 997.8
06 19.04 СЗ 4 10 км слаб. ливневой снег 10/10 660 м
[Cb cap]
+1.3 -0.5 88 -4 -4 1007.8 1000.1
09 19.04 СЗ 2 20 км {ливн. осадки} 10/10 720 м
[Cb cap]
+1.7 -1.7 78 -1 -1 1009.7 1002.0 +2.4 4
12 19.04 З 1 20 км {ливн. осадки} 10/5 600 м
[Cb cap Ac trans Ci fib]
0.0 -1.2 92 -2 -2 1011.2 1003.4
15 19.04 ЮЗ 1 20 км 3/0
[Ac trans Ci fib]
-1.0 -1.6 96 -3 -3 1011.5 1003.6
18 19.04 З 1 20 км 8/0
[Ac trans Ci fib]
-1.7 -2.2 96 -4 -4 1012.6 1004.7
21 19.04 штиль 0 50 км 6/3 1000 м
[Sc Ac trans]
-2.1 -2.9 94 -3 -3 1013.2 1005.3 -2.4 <0.5
00 20.04 СЗ 1 50 км 1/0
[Ac trans]
+2.5 -1.8 73 +1 +11 опасность
простуды
1013.3 1005.5
03 20.04 ЮЗ 1 50 км 9/9 720 м
[Cb cap]
+5.4 -3.2 54 +5 +6 1012.4 1004.7
06 20.04 ЮВ 2 50 км 10/8 720 м
[Cb cap Ac trans Ci fib]
+6.9 -2.8 50 +5 +6 1010.1 1002.5
09 20.04 ЮВ 3 50 км 10/3 1000 м
[Sc Ac trans Ci sp]
+6.2 -2.3 54 +4 +4 1008.7 1001.1 +7.7
12 20.04 В 2 50 км 9/4 600 м
[Cb cap Ac trans]
+3.7 -1.8 67 +1 +1 1008.9 1001.2
15 20.04 штиль 0 50 км 9/1 1000 м
[Sc Ac trans Ci fib]
+3.5 -2.1 67 +3 +3 1007.0 999.3
18 20.04 СВ 1 50 км 10/3 600 м
[Cb cap Ac trans Ci fib]
+1.1 -1.4 83 -1 -1 1006.2 998.5
21 20.04 В 2 20 км 9/9 750 м
[Cb cap]
+3.6 -1.8 68 +1 +1 1005.6 997.9 +0.7
00 21.04 ЮЗ 2 20 км 10/3 1000 м
[Sc Ac trans Ci fib]
+8.0 -1.3 52 +7 +10 1005.5 998.0
03 21.04 З 6
{10}
20 км 5/5 600 м
[Cb cap]
+10.6 -0.3 47 +8 +11 1006.1 998.7
06 21.04 З 7-12
{12}
20 км 5/3 600 м
[Cb cap Ac trans]
+11.4 -4.7 32 +9 +10 1006.4 999.0
09 21.04 З 5
{12}
50 км 3/0
[Ac trans]
+10.2 -7.6 28 +8 +8 1008.0 1000.5 +11.7
12 21.04 ЮЗ 1 50 км 1/0
[Ac trans]
+4.2 -6.2 47 +4 +4 1010.6 1002.9
15 21.04 З 1 50 км ясно +3.0 -9.9 38 +2 +2 1012.2 1004.5
18 21.04 ЮЗ 2 50 км ясно +1.6 -9.3 44 -1 -1 1013.0 1005.2
21 21.04 З 4 50 км 1/0
[Ci fib]
+1.5 -7.3 52 -3 -2 1014.5 1006.7 +0.2
00 22.04 З 5 50 км ясно +7.4 -6.8 36 +4 +9 1014.9 1007.2
03 22.04 З 5-10
{12}
50 км 1/1 1000 м
[Cu hum]
+11.5 -7.6 25 +10 +17 1014.5 1007.0
06 22.04 З 6
{13}
50 км 1/0
[Ci fib]
+13.0 -7.7 23 +11 +14 1013.3 1005.8
09 22.04 ЮЗ 3
{10}
20 км 5/0
[Ci fib]
+12.7 -8.5 22 +12 +12 1012.9 1005.4 +13.4
12 22.04 Ю 3 20 км ясно +8.7 -8.3 29 +7 +7 1013.8 1006.2
15 22.04 Ю 4 20 км 8/0
[Ci fib]
+6.5 -6.6 39 +4 +4 1013.0 1005.3
18 22.04 ЮВ 4 20 км 10/6 1000 м
[Sc Ac trans Ci sp]
+6.0 -7.8 36 +3 +3 1011.5 1003.9
21 22.04 Ю 1 20 км 10/10 720 м
[Cb cap]
+6.1 -7.4 37 +6 +6 1009.6 1002.0 +5.0

 

Местоположение метеостанции Елабуга (Хабаровский край, Россия): широта 48.82 долгота 135.80 высота над уровнем моря 58 м.

В архиве по умолчанию представлена погода в Елабуге за последнюю неделю. Архивные данные за месяц целиком и за предыдущие месяцы, начиная с января 2011 года, Вы можете получить, выбрав интересующий диапазон дат из раскрывающегося списка и нажав кнопку "Ввод!".


*Определитесь, кто Вы:
робот инопланетянин человек

Внимание! Время в таблицах - всемирное. Для получения местного времени необходимо прибавить поправку, которая равна 10 ч.

Смотрите также архив погоды в соседних городах и на ближайших метеорологических станциях:

Погода в Князе-Волконском (Хабаровский край, Россия) (45 км)
Погода в Хабаровске 21 км (Хабаровский край, Россия) (51 км)
Погода в Хабаровске (Хабаровский край, Россия) (61 км)
Погода в Хабаровске Агромет (Хабаровский край, Россия) (62 км)
Погода в Хабаровске Аэр. Большой (Хабаровский край, Россия) (64 км)
Погода на Хабаровск Мосту (Хабаровский край, Россия) (66 км)
Погода в Хабаровске АМС (Хабаровский край, Россия) (67 км)
Погода в Литовко (Хабаровский край, Россия) (68 км)
Погода в Оборе (Хабаровский край, Россия) (83 км)
Погода в Троицком (Хабаровский край, Россия) (89 км)

Пояснения к столбцам:

Ветер - указаны скорость ветра в м/с - средняя за 10 мин, порывы в срок и между сроками (в фигурных скобках) и направление, откуда дует ветер: С - северный, СВ - северо-восточный, В - восточный, ЮВ - юго-восточный, Ю - южный, ЮЗ - юго-западный, З - западный, СЗ - северо-западный.
Видимость - горизонтальная дальность видимости в метрах или километрах. При видимости от 1 до 10 км при отсутствии осадков обычно наблюдается дымка, при ухудшении видимости до 1 км и менее - туман. В сухую погоду видимость может ухудшаться дымом, пылью или мглою.
Явления - указаны атмосферные явления, наблюдавшиеся в срок или в последний час перед сроком; фигурными скобками обозначены явления, наблюдавшиеся между сроками (за 1-3 часа до срока); квадратными скобками обозначены град или гололедные отложения с указанием их диаметра в мм.
Облачность - указаны через наклонную черту общая и нижняя облачность в баллах и высота нижней границы облаков в метрах; квадратными скобками обозначены формы облаков: Ci - перистые, Cs - перисто-слоистые, Cc - перисто-кучевые, Ac - высококучевые, As - высокослоистые, Sc - слоисто-кучевые, Ns - слоисто-дождевые, Cu - кучевые, Cb - кучево-дождевые. Подробнее классификацию облаков см. в Атласе облаков (PDF).
T - Температура воздуха - температура, измеренная на высоте 2 м над землей.
Td - Температура точки росы - температура, при понижении до которой содержащийся в воздухе водяной пар достигнет насыщения.
f - Относительная влажность воздуха - влажноcть воздуха, измеренная на высоте 2 м над землей.
Te - Эффективная температура - температура, которую ощущает одетый по сезону человек в тени. Характеристика душности погоды. При расчете учитывается влияние влажности воздуха и скорости ветра на теплоощущения человека.
Tes - Эффективная температура на солнце - температура, которую ощущает человек, с поправкой на солнечный нагрев. Характеристика знойности погоды. Зависит от высоты солнца над горизонтом, облачности и скорости ветра. Ночью, в пасмурную погоду, а также при ветре 12 м/с и более поправка равна нулю.
P - Атмосферное давление - приведенное к уровню моря атмосферное давление.
Po - Атмосферное давление - измеренное на уровне метеостанции атмосферное давление.
Tmin - Минимальная температура - минимум температуры воздуха на высоте 2 м над землей.
Tmax - Максимальная температура - максимум температуры воздуха на высоте 2 м над землей.
R - Количество осадков - Количество выпавших осадков за период времени, мм. При наведении курсора мыши на число - период времени, за который выпало указанное количество осадков.
R24 - Количество осадков - Количество выпавших осадков за 24 часа, мм.
S - Снежный покров - Высота снежного покрова, см. При наведении курсора мыши на число - состояние снежного покрова и степень покрытия местности в баллах.